User: anonymous   Login
Location: Hickory_Viewmont
(35.7830°N, 81.3170°W)
Time: 14:50:48
(UTC-05:00)
Language:

Okean-O - Orbit

View from above orbital plane
View from above orbital plane
View from above satellite
View from above satellite

Ground track
Ground track

The orbit data is extracted from the following two-line orbital elements,

1 25860U 99039A   16337.13265046  .00000073  00000-0  18158-4 0  9995
2 25860  98.1649 313.5734 0001775  77.5331 282.6077 14.76429352934755
Epoch (UTC): 02 December 2016 03:11:01
Eccentricity: 0.0001775
inclination: 98.1649°
perigee height: 639 km
apogee height: 642 km
right ascension of ascending node: 313.5734°
argument of perigee: 77.5331°
revolutions per day: 14.76429352
mean anomaly at epoch: 282.6077°
orbit number at epoch: 93475

The dashed part of the orbit path shows where the satellite is in the earth's shadow,  

DLR